User: anonymous   Login
Location: Unspecified
(29.9891°N, 0.0000°E)
Time: 03:41:07
(UTC+00:00)
Language:

Aureole 3 Rocket - Orbit

View from above orbital plane
View from above orbital plane
View from above satellite
View from above satellite

Ground track
Ground track

The orbit is defined by the following mean orbital elements,

1 12849U          26088.12385933 +.00000000 +00000-0 +10724-3 0 00002
2 12849  82.4883 217.0889 0869763  43.0700 323.5252 13.58140323    09
Epoch (UTC): 29 March 2026 02:58:21
Eccentricity: 0.0869763
inclination: 82.4883°
perigee height: 397 km
apogee height: 1688 km
right ascension of ascending node: 217.0889°
argument of perigee: 43.0700°
revolutions per day: 13.58140323
mean anomaly at epoch: 323.5252°

The dashed part of the orbit path shows where the satellite is in the earth's shadow,  

DLR